Skip Page Navigation
NASA JPL Caltech
NASA Logo - Jet Propulsion Laboratory + View the NASA Portal
+ Center for Near-Earth Object Studies
JPL Home Earth Solar System Stars & Galaxies Technology
JPL Solar System Dynamics
BODIES ORBITS EPHEMERIDES TOOLS PHYSICAL DATA DISCOVERY FAQ SITE MAP
IMPORTANT: The SSD Announcement email list is now available. Major changes are coming in the near future, including possible hostname and/or URL changes. To be notified of such changes, subscribe to this email list.

Please visit this page for more details.


JPL Small-Body Database Browser
Search: [ help ]  
3490 Solc (1984 SV)
Classification: Main-belt Asteroid          SPK-ID: 2003490
Ephemeris | Orbit Diagram | Orbital Elements | Mission Design | Physical Parameters | Discovery Circumstances ]

[ hide orbit diagram ]

For accurate long-term ephemerides, please instead use our Horizons system.This orbit viewer was implemented using two-body methods, and hence should not be used for determining accurate long-term trajectories (over several years or decades) or planetary encounter circumstances.


[ revert to old Java-based viewer ]

Orbital Elements at Epoch 2459000.5 (2020-May-31.0) TDB
Reference: JPL 27 (heliocentric ecliptic J2000)
 Element Value Uncertainty (1-sigma)   Units 
e .1171427243427916 3.2212e-08  
a 2.400570994537044 8.3437e-09 au
q 2.11936156825869 7.6917e-08 au
i 5.875076924415706 4.3799e-06 deg
node 343.9495609898684 3.5522e-05 deg
peri 99.13959116883257 4.0539e-05 deg
M 146.5902738626565 1.9789e-05 deg
tp 2458447.311792166093
(2018-Nov-24.81179217)
7.3821e-05 TDB
period 1358.533206690044
3.72
7.0828e-06
1.939e-08
d
yr
n .2649916823727193 1.3816e-09 deg/d
Q 2.681780420815398 9.3211e-09 au
  Orbit Determination Parameters
   # obs. used (total)      2051  
   data-arc span      23986 days (65.67 yr)  
   first obs. used      1954-08-27  
   last obs. used      2020-04-28  
   planetary ephem.      DE431  
   SB-pert. ephem.      SB431-N16  
   condition code      0  
   norm. resid. RMS      .46716  
   source      ORB  
   producer      Otto Matic  
   solution date      2020-May-20 01:55:06  

Additional Information
 Earth MOID = 1.14479 au 
 Jupiter MOID = 2.50992 au 
 T_jup = 3.510 
[ show covariance matrix ]

Ephemeris | Orbit Diagram | Orbital Elements | Mission Design | Physical Parameters | Discovery Circumstances ]

Physical Parameter Table
Parameter Symbol Value Units Sigma Reference Notes
absolute magnitude H 13.5   n/a MPO473813  
diameter diameter 4.981 km 0.285 urn:nasa:pds:neowise_diameters_albedos::2.0[mainbelt] (http://adsabs.harvard.edu/abs/2011ApJ...741...68M)  
geometric albedo albedo 0.224   0.037 urn:nasa:pds:neowise_diameters_albedos::2.0[mainbelt] (http://adsabs.harvard.edu/abs/2012ApJ...759L...8M)  

3490 Solc (1984 SV)          Discovered 1984-Sep-20 by Mrkos, A. at Klet
Reference: DISCOVERY.DBLast Updated: 2003-08-29

Alternate Designations
 1984 SV = 1951 YE1 = 1969 RV1 = 1973 UX3 
Ephemeris | Orbit Diagram | Orbital Elements | Mission Design | Physical Parameters | Discovery Circumstances ]
ABOUT SSD CREDITS/AWARDS PRIVACY/COPYRIGHT GLOSSARY LINKS
FirstGov 2020-May-31 17:35 UT
(server date/time)  
NASA Home Page
Site Manager:   Ryan S. Park
Webmaster  Alan B. Chamberlin